Location: Gleizolles
(44.4833°N, 6.7667°E)
Time: 20:43:21
(UTC+00:00)

Tiros 1 despin weight - Pass Details

Date: 30 June 2024
Orbit: 576 x 620 km, 48.2° (Epoch: 19 July)

Event Time Altitude Azimuth Distance (km) Brightness Sun altitude
Rises 12:37:56 0° 288° (WNW) 2,892 ? 65.2°
Reaches altitude 10° 12:40:16 10° 291° (WNW) 1,988 ? 65.0°
Maximum altitude 12:44:50 67° 15° (NNE) 673 ? 64.5°
Drops below altitude 10° 12:49:23 10° 98° (E) 1,982 ? 64.0°
Sets 12:51:42 0° 101° (ESE) 2,883 ? 63.7°
